Wind_Speed
115 116 117 118 119 121 122 123 124 124 124 123 123 123 123 124 124 123 122 121 121 120 119 118 117 116 115 115 116 116 117 117 117 117 117 116 116 115 114 113 113 112 111 110 109 108 108 107 107 106 106 106 105 104 103 102 101 101 100 100 100 100
122 122 123 123 124 125 126 127 128 129 129 129 128 127 127 127 127 128 127 126 126 125 124 123 123 122 121 120 119 120 121 121 121 121 121 121 121 120 119 118 118 117 117 116 115 114 113 112 112 111 110 110 110 109 108 107 106 105 105 105 105 104
127 127 128 128 129 129 130 132 132 132 132 132 131 131 130 130 130 131 131 131 130 129 128 127 127 127 126 125 124 123 124 125 125 125 124 124 124 124 124 123 122 122 121 120 119 119 118 117 117 116 115 115 114 114 113 112 111 110 109 109 109 109
131 131 132 133 134 135 136 136 135 135 134 133 133 132 133 133 134 134 134 134 134 133 132 131 131 130 130 129 128 127 127 127 128 128 128 128 128 127 127 127 126 126 125 125 124 123 123 122 122 121 120 119 119 118 117 117 116 114 113 113 112 112
135 135 136 137 139 141 142 140 138 136 135 134 133 133 134 135 135 136 137 137 137 136 135 134 134 133 133 132 132 131 131 131 131 131 131 131 131 131 131 131 130 130 129 129 128 127 127 126 126 125 124 124 123 122 121 121 120 118 118 117 116 116
138 139 140 141 143 144 143 140 137 135 134 132 132 132 133 134 135 136 137 138 139 138 137 137 136 135 135 134 134 133 133 133 133 134 134 134 134 134 134 134 134 134 133 132 131 131 130 130 129 129 128 127 127 126 125 125 124 122 121 120 120 120
140 141 141 141 141 139 136 134 132 131 130 130 130 130 131 132 134 135 136 137 138 139 139 138 138 137 136 136 135 135 135 135 135 136 136 137 137 137 137 137 137 137 137 136 135 135 134 134 133 133 132 132 131 130 130 128 127 127 126 124 124 123
137 137 135 134 132 129 127 126 125 124 125 125 126 127 128 129 130 131 133 134 135 136 137 137 137 137 136 136 135 135 134 134 135 135 136 137 138 139 139 139 139 140 140 140 140 139 139 138 137 137 136 136 136 136 135 134 133 132 131 130 129 128
128 127 126 124 122 120 119 118 118 118 118 119 121 122 124 125 126 127 128 129 130 131 132 133 133 134 134 134 133 133 132 132 132 133 134 135 136 137 137 138 139 139 140 141 141 141 141 141 140 140 140 140 141 141 140 140 140 139 139 139 138 137
121 120 118 117 116 115 114 113 112 112 113 114 115 117 119 121 122 123 124 125 125 126 127 128 128 129 129 129 129 129 129 129 129 129 130 130 132 133 133 134 135 136 136 137 138 139 139 139 139 139 140 140 141 142 142 142 142 142 141 141 140 139
118 117 116 115 114 113 112 111 110 109 109 110 111 113 115 116 118 120 121 122 123 123 124 124 125 125 125 125 125 125 125 125 126 126 126 127 128 129 130 130 131 132 132 133 134 135 135 135 135 135 135 136 136 137 137 137 137 136 136 135 134 133
117 116 115 114 113 112 111 111 111 110 109 109 109 110 111 113 114 116 118 119 120 121 122 122 123 123 123 123 123 123 123 123 123 123 124 125 125 126 127 128 128 129 129 130 130 131 131 131 132 132 132 131 132 132 132 131 131 130 129 129 128 128
115 114 113 113 112 111 111 110 110 110 109 109 108 109 109 110 111 112 114 116 117 119 120 120 121 121 122 122 123 123 123 122 122 122 122 123 123 124 125 125 126 127 127 127 128 128 128 128 129 129 129 128 128 127 127 127 126 126 124 123 123 122
111 111 111 110 110 110 109 109 109 109 108 108 108 108 108 108 109 110 111 113 114 116 117 118 119 119 121 122 122 123 123 123 123 122 122 122 122 122 122 123 124 125 125 126 126 126 127 127 127 127 127 127 126 125 124 124 123 123 122 121 120 119
110 109 109 108 108 108 107 107 106 106 106 106 106 106 106 107 107 108 109 110 111 112 113 114 116 117 119 121 122 122 122 123 123 123 122 122 122 121 121 121 122 123 124 124 124 125 126 126 127 127 127 126 125 124 123 122 121 121 121 120 119 118
109 108 108 107 107 107 107 106 105 104 104 104 104 104 104 105 105 106 107 108 108 109 110 111 112 114 116 118 120 121 121 122 122 122 122 122 122 122 121 120 120 121 122 122 122 122 123 124 126 127 128 127 126 125 123 122 120 120 119 119 119 119
109 108 108 108 108 108 107 106 105 104 103 103 102 102 102 103 103 103 104 105 105 106 107 108 110 111 113 115 117 118 119 120 121 122 122 122 122 122 121 121 120 119 120 120 120 120 120 121 123 125 127 127 126 125 123 121 120 119 118 118 118 118
109 109 109 109 109 109 108 107 106 104 103 103 102 102 101 101 101 101 102 102 102 103 104 106 107 107 109 111 113 114 116 117 119 120 121 121 121 121 121 121 120 120 119 119 119 119 118 118 120 123 124 125 126 125 123 121 119 118 117 117 117 117
108 108 108 109 109 109 109 107 105 104 103 102 102 102 101 101 101 100 100 101 101 101 102 103 104 104 105 107 109 111 112 114 115 116 118 119 119 119 120 120 120 120 120 120 120 119 118 117 119 121 122 122 123 124 123 121 118 117 116 116 116 117
104 105 106 107 108 108 108 106 104 103 102 101 101 101 100 100 99 99 98 99 99 99 100 101 102 102 103 105 107 108 109 111 112 113 115 116 116 116 117 118 119 119 119 120 120 120 119 118 118 120 121 121 121 121 121 120 119 117 115 115 116 116
101 101 102 104 105 105 105 104 102 101 100 100 100 99 99 98 97 96 96 96 96 96 97 98 99 100 101 103 105 107 107 108 109 111 113 114 114 114 115 116 116 116 117 117 118 119 119 119 118 119 121 122 122 121 119 118 118 116 115 115 116 116
98 98 99 100 101 101 101 100 99 98 98 98 98 97 97 96 95 94 94 93 93 93 94 96 97 98 99 100 101 103 104 105 106 108 110 112 113 113 114 115 115 115 114 115 115 116 117 117 117 118 120 121 122 122 120 117 116 115 115 116 116 116
95 95 96 96 97 96 96 95 95 95 95 95 94 94 93 92 92 91 91 90 90 91 93 95 96 96 97 97 98 99 100 101 103 104 106 108 110 110 112 113 114 114 114 114 114 114 114 115 115 117 118 120 121 122 122 119 115 114 114 116 117 116
92 92 92 93 93 92 91 91 91 91 91 91 91 90 89 89 88 88 88 88 89 90 92 93 94 94 94 94 94 95 96 97 98 100 101 103 104 106 107 109 110 112 112 112 113 114 114 114 114 115 117 118 119 120 121 121 118 114 113 114 115 116
89 89 90 91 91 90 89 89 88 88 89 89 88 88 87 86 86 86 87 88 89 90 91 92 93 93 93 92 92 92 93 93 95 97 98 98 99 100 101 103 105 107 108 108 109 111 112 113 114 114 115 116 118 119 120 120 119 117 115 114 113 114
86 86 88 89 89 89 88 87 87 86 87 88 87 86 85 85 85 86 87 88 89 90 90 91 91 91 92 91 91 91 91 91 93 94 95 96 96 96 97 98 100 101 102 103 104 105 107 110 112 114 114 115 116 118 118 118 117 118 118 116 113 113
85 85 87 88 89 88 87 87 86 86 86 87 86 85 85 85 86 87 88 88 89 89 90 90 90 91 91 91 91 91 90 90 91 92 93 94 95 95 95 95 97 98 98 99 99 99 101 104 107 110 112 113 115 116 117 117 115 115 116 117 115 113
85 85 85 86 88 87 86 86 86 86 86 86 85 85 85 85 86 86 87 88 89 89 90 89 89 90 90 91 91 91 90 90 91 91 92 93 93 93 93 93 94 95 96 96 96 97 97 99 101 104 106 109 112 114 115 116 115 113 113 113 113 113
84 84 85 85 86 86 86 86 87 86 85 84 84 84 84 84 84 85 86 87 87 87 87 87 86 87 88 89 89 89 89 89 89 89 89 90 91 91 91 91 91 92 92 93 94 95 95 95 97 99 100 104 107 110 112 114 114 113 110 109 109 110
84 84 84 84 84 85 86 86 86 86 84 83 83 83 83 82 83 82 82 83 83 83 83 83 82 83 84 84 85 85 85 86 87 86 86 87 88 88 88 88 88 88 88 88 89 91 91 92 93 95 98 101 104 105 107 110 112 111 110 108 106 107
83 83 84 84 84 84 85 85 85 85 83 82 82 81 81 80 80 80 80 80 80 80 79 79 79 79 79 80 80 81 82 83 83 83 83 83 84 83 83 84 85 85 85 84 84 85 86 86 88 92 95 98 100 102 104 106 108 110 109 107 105 104
82 82 83 83 83 83 83 83 83 83 82 81 80 80 79 79 78 78 79 78 78 78 77 77 77 77 77 77 77 78 79 80 80 80 80 80 81 80 79 79 80 82 82 81 80 81 81 81 84 88 90 93 95 98 101 103 105 107 108 107 105 103
81 81 81 81 80 80 80 80 80 79 78 78 78 78 77 76 75 76 77 77 76 76 75 75 75 75 75 75 75 76 77 77 78 77 76 76 77 77 77 77 77 78 78 77 77 77 78 78 81 83 85 86 89 93 96 99 102 103 105 106 105 102
79 79 78 78 77 77 77 77 76 75 75 76 76 75 75 74 74 74 75 75 74 74 74 74 73 72 72 73 74 74 74 74 75 75 75 73 73 73 74 75 74 74 74 74 74 75 76 77 78 79 80 81 83 87 90 94 98 100 101 103 104 100
77 76 76 76 75 75 75 74 73 73 73 74 73 73 73 73 72 73 73 72 72 72 72 72 71 70 70 71 72 73 73 72 72 72 73 73 72 71 71 72 72 72 71 70 71 71 73 75 76 76 76 77 79 82 85 88 92 95 97 99 100 97
74 74 74 74 74 74 73 72 71 71 71 72 71 71 70 71 71 72 71 70 70 69 69 69 69 68 68 68 69 69 70 70 70 69 70 71 71 70 69 69 69 69 68 68 68 68 70 72 72 72 72 73 75 78 81 84 87 89 92 94 95 93
72 73 73 73 73 72 71 70 70 70 70 70 70 69 68 68 69 69 69 69 68 67 66 66 65 65 65 65 66 66 66 67 67 67 67 67 68 69 68 67 65 65 65 65 66 66 67 68 68 68 69 70 72 75 78 80 81 84 87 89 90 89
71 71 72 72 71 70 69 69 69 69 69 68 68 67 66 65 66 66 66 66 66 65 64 63 62 61 61 62 62 63 63 64 64 64 64 64 64 65 66 66 64 62 61 62 63 64 65 65 64 64 65 66 69 72 75 77 78 80 83 85 86 86
Wind_Direction
274 274 274 275 277 279 280 280 280 280 279 278 277 276 275 275 275 274 273 273 272 272 271 270 269 267 266 265 265 264 264 264 264 264 264 264 264 264 263 263 262 262 262 263 263 262 262 263 263 263 262 262 262 263 262 262 262 263 263 264 264 264
274 274 274 274 276 278 279 280 280 280 279 278 277 275 274 273 273 273 272 272 271 271 270 270 269 268 267 266 264 264 263 263 263 263 263 263 263 263 263 263 262 262 262 262 263 262 262 262 262 262 262 262 262 263 263 263 262 262 263 263 263 264
273 273 273 274 275 277 279 279 279 278 277 276 275 274 273 272 272 271 271 270 270 269 269 268 268 268 267 266 265 264 263 263 263 263 263 263 263 262 262 262 262 262 262 262 262 262 262 263 262 263 263 262 262 262 262 262 262 262 262 262 263 263
274 273 273 273 274 276 278 278 277 276 275 274 273 272 271 271 270 269 269 269 269 268 268 267 267 266 266 266 266 265 264 263 263 262 262 262 262 262 262 262 262 262 261 262 262 261 262 262 262 263 263 263 263 263 263 263 262 262 261 261 262 262
274 274 274 274 274 276 277 276 275 274 273 271 270 269 269 269 268 268 268 268 268 268 267 267 266 266 265 265 265 265 264 264 263 263 262 262 262 262 262 262 262 262 262 262 261 261 261 261 261 262 262 262 263 263 263 263 263 263 263 262 262 262
273 273 273 273 274 275 275 274 273 272 270 269 268 268 268 267 267 267 267 267 267 267 267 267 266 266 265 265 264 264 264 264 264 264 263 263 262 262 262 262 262 262 262 262 262 262 262 262 262 261 261 262 262 262 262 262 262 262 263 263 263 263
273 273 273 273 273 273 273 272 271 270 269 268 267 267 266 266 266 266 266 266 267 267 267 266 266 266 265 265 264 264 264 263 263 263 263 263 263 263 262 262 262 261 262 262 262 261 261 261 261 261 261 261 261 261 261 261 261 261 262 262 263 263
274 274 273 273 272 272 271 270 269 268 268 267 267 266 266 266 265 265 265 265 266 266 266 266 266 266 265 265 264 264 263 263 263 263 263 263 263 263 263 262 262 262 262 262 262 261 261 261 261 261 261 261 261 261 261 261 261 261 261 261 261 262
274 273 273 272 272 271 270 269 269 268 267 267 266 266 266 266 265 265 265 265 265 265 265 265 265 265 265 265 264 264 263 263 262 262 262 262 262 262 262 262 262 262 262 262 262 262 261 261 261 261 261 261 261 261 261 261 261 261 262 262 262 262
275 274 274 273 272 272 271 269 268 267 267 266 266 265 265 265 265 265 265 265 265 265 265 265 265 265 265 264 264 264 264 263 262 262 262 262 262 262 262 262 261 261 262 262 262 262 262 262 261 261 261 261 261 261 261 262 262 262 262 262 262 262
275 275 275 274 274 273 272 271 270 268 267 266 265 264 264 264 264 264 264 264 265 265 265 265 265 265 265 265 264 264 264 263 263 262 262 262 261 261 261 261 261 261 261 261 261 262 262 262 262 261 261 261 261 261 261 261 261 262 262 262 262 262
276 275 275 275 274 273 272 272 271 269 268 266 265 264 264 263 263 263 263 264 264 264 264 265 265 265 265 265 265 264 264 264 263 263 262 262 262 262 261 261 261 261 261 261 261 261 262 262 262 262 262 261 261 261 261 261 261 261 261 261 261 261
276 275 275 274 273 273 272 271 271 270 269 268 267 266 265 264 263 263 263 263 263 264 264 264 265 265 265 265 265 265 264 264 263 263 262 262 262 262 262 262 262 262 262 262 262 262 262 262 262 262 262 261 261 261 261 261 261 261 260 260 260 260
276 275 275 274 273 272 272 271 271 270 270 269 269 268 267 266 265 264 263 263 263 263 263 263 264 264 264 264 264 264 264 264 263 263 262 262 261 261 261 261 261 261 261 262 262 262 262 262 262 262 261 261 261 261 261 261 261 261 261 261 260 260
277 276 276 275 274 273 273 272 271 271 270 270 269 268 268 267 266 265 264 263 263 262 262 262 263 263 263 263 263 263 263 263 263 263 263 262 262 261 261 260 261 261 261 261 261 261 262 262 262 262 262 261 261 261 261 260 260 261 261 261 261 261
277 277 277 276 276 275 274 273 272 272 271 270 269 269 268 267 267 266 266 265 264 263 263 262 262 262 262 262 262 263 263 263 263 263 263 262 262 262 262 261 260 260 260 261 260 260 261 261 262 262 262 262 262 261 261 260 260 260 260 260 261 261
277 277 277 277 276 276 275 275 274 273 273 272 271 270 270 269 268 268 267 266 266 265 265 264 263 262 262 262 262 262 262 262 263 262 262 262 262 262 262 262 262 261 261 261 261 260 260 260 261 262 262 263 262 262 261 261 260 260 260 260 260 260
278 278 278 278 277 277 276 276 276 275 275 274 274 273 272 271 270 270 269 268 267 266 266 265 264 263 263 263 262 262 262 262 262 262 262 262 262 262 262 262 262 262 262 262 261 261 261 260 261 261 261 262 262 262 262 262 261 260 260 259 259 259
278 278 278 278 278 277 277 277 277 276 276 275 275 274 274 273 272 271 270 270 269 268 267 266 266 265 264 263 263 262 262 262 262 262 262 262 262 262 262 262 262 262 262 262 262 262 261 261 261 261 261 261 261 262 262 262 261 261 260 260 259 259
277 277 277 277 277 277 277 278 278 278 277 277 276 276 275 274 273 272 271 271 270 269 268 267 267 266 265 264 264 263 262 262 262 262 262 262 261 261 261 261 261 261 261 261 261 262 262 261 261 261 262 261 261 261 261 261 261 261 260 260 260 259
276 276 276 276 276 277 277 278 278 279 278 278 277 277 276 275 274 274 273 272 271 270 269 268 267 266 265 264 263 263 262 262 261 261 261 261 261 261 261 261 261 260 260 260 260 260 261 261 261 261 261 262 262 261 261 260 260 261 260 260 260 260
277 276 276 276 276 277 277 278 278 278 278 278 277 277 277 276 276 275 275 274 273 272 271 270 268 267 265 264 263 263 262 262 261 261 260 260 260 260 260 260 261 260 260 260 259 259 259 259 259 260 260 260 261 262 261 260 260 260 260 260 260 260
278 277 277 277 277 277 278 278 278 278 277 277 277 277 277 277 277 276 276 275 274 273 272 271 269 268 267 266 265 264 263 263 262 261 260 260 260 260 259 259 260 260 260 260 260 259 259 259 258 258 259 259 259 260 261 261 260 259 258 259 259 259
279 279 279 278 278 278 278 278 278 278 278 278 277 277 277 277 277 277 276 276 274 273 272 271 270 269 269 268 267 266 266 265 264 263 262 261 261 260 260 259 259 259 259 259 259 260 260 259 258 258 258 258 258 259 259 260 260 259 258 257 257 258
279 279 279 279 279 279 279 278 278 278 278 278 278 278 278 278 278 277 277 275 274 273 272 272 271 271 270 270 269 268 267 266 266 265 264 263 262 261 261 260 259 259 258 258 258 258 259 259 259 258 258 257 258 258 258 258 259 259 258 257 256 256
280 280 280 280 279 279 279 279 279 279 279 279 279 279 279 279 278 277 276 275 274 274 274 273 273 273 272 271 270 269 268 267 267 266 265 264 263 262 261 261 260 259 259 258 257 256 256 257 257 258 258 257 257 258 257 257 257 257 258 258 256 255
281 281 281 281 281 281 281 281 281 280 280 280 279 280 279 279 278 277 277 276 276 275 275 274 274 274 274 273 272 271 270 269 267 267 266 265 264 262 261 261 260 260 259 258 257 256 255 255 255 256 256 257 257 257 258 258 257 256 256 257 256 255
282 281 281 281 281 281 282 281 281 280 279 279 280 280 279 278 278 278 278 277 277 276 276 275 275 275 274 274 273 272 271 269 268 267 266 265 265 263 262 261 260 260 259 259 258 257 256 255 254 254 255 255 256 256 257 258 258 256 255 255 256 256
281 281 281 281 281 281 281 281 281 280 280 280 280 280 279 279 278 278 277 277 276 276 276 275 275 274 273 273 272 272 271 270 269 268 267 267 266 265 264 263 262 261 260 259 258 258 256 256 255 255 254 254 254 255 255 256 257 257 256 255 255 255
281 281 281 281 282 282 282 282 282 282 282 282 282 281 281 280 279 279 278 277 277 276 276 275 275 274 273 273 272 272 271 271 270 269 268 268 267 266 266 265 264 263 262 261 260 259 258 257 256 255 255 254 254 254 255 255 257 257 257 256 254 253
281 282 282 282 282 283 283 283 283 283 283 283 283 283 282 281 281 280 279 278 278 277 277 276 275 275 274 274 273 272 272 271 270 270 269 268 268 267 266 266 265 265 264 262 261 260 259 258 256 255 254 254 254 254 254 255 256 257 257 257 255 253
282 282 282 282 283 283 283 283 283 284 284 284 283 283 282 282 281 281 280 280 279 278 278 277 277 276 275 275 274 273 273 272 271 270 270 270 269 269 268 266 266 265 265 264 263 261 260 258 257 255 254 254 254 254 254 254 255 256 257 257 257 255
282 282 282 283 283 283 283 283 283 283 283 283 283 282 282 281 281 281 280 280 279 279 279 278 278 277 277 276 275 274 274 273 273 272 271 270 270 270 269 268 266 265 265 264 263 262 260 258 257 255 254 253 253 253 253 254 254 255 256 257 257 256
284 284 284 284 284 284 283 283 283 283 283 283 282 282 282 282 281 280 280 280 280 280 279 279 278 278 277 277 276 275 275 274 274 274 273 272 270 270 269 268 267 266 265 264 263 262 261 259 257 256 255 253 252 252 252 253 254 254 255 256 257 257
285 285 285 285 285 284 283 284 284 284 283 283 283 282 282 282 282 281 281 280 280 280 279 279 278 278 277 276 276 275 275 275 274 274 274 273 272 270 268 267 267 266 265 264 262 261 260 259 258 257 255 254 253 252 251 251 252 253 254 255 256 257
285 286 285 285 284 284 284 285 285 284 283 283 283 283 283 283 282 282 281 281 280 279 279 279 278 278 277 276 275 275 275 275 274 273 273 272 272 271 270 268 267 267 266 265 263 262 260 259 258 257 256 254 253 252 251 250 251 251 252 254 256 257
286 285 285 285 285 285 285 285 285 284 284 283 282 282 282 282 282 282 282 281 281 280 279 279 278 278 277 276 276 275 275 274 273 273 272 271 271 272 271 270 268 267 267 266 265 263 261 260 258 257 255 254 253 252 252 251 250 251 251 252 254 255
285 285 285 285 285 286 286 285 284 284 284 283 283 283 283 283 283 283 283 282 282 282 281 280 279 278 278 277 277 276 275 274 274 273 272 272 271 271 271 271 269 267 266 265 265 264 262 260 258 256 254 253 251 251 251 251 250 250 250 250 251 252
Height
10514 10513 10512 10510 10507 10506 10506 10505 10504 10503 10503 10504 10505 10504 10504 10502 10502 10502 10502 10502 10502 10501 10502 10503 10503 10504 10505 10505 10504 10503 10502 10503 10502 10503 10503 10504 10505 10506 10508 10508 10509 10510 10511 10511 10513 10514 10515 10516 10516 10517 10517 10518 10519 10521 10523 10524 10523 10524 10526 10526 10527 10527
10495 10494 10494 10493 10492 10490 10489 10489 10488 10486 10484 10483 10483 10483 10483 10483 10482 10482 10481 10482 10482 10482 10482 10483 10483 10484 10485 10486 10487 10486 10485 10485 10486 10486 10487 10487 10488 10489 10490 10491 10492 10493 10494 10494 10496 10498 10499 10500 10500 10501 10502 10503 10504 10505 10507 10509 10508 10510 10513 10513 10513 10514
10477 10476 10475 10474 10474 10473 10472 10471 10470 10469 10467 10465 10462 10460 10460 10460 10460 10460 10459 10459 10460 10460 10461 10462 10463 10463 10464 10465 10467 10468 10466 10466 10467 10468 10468 10469 10470 10471 10471 10473 10474 10475 10476 10477 10479 10480 10481 10482 10483 10484 10485 10487 10488 10489 10490 10491 10492 10495 10498 10498 10499 10500
10457 10457 10456 10454 10454 10454 10453 10452 10450 10448 10447 10445 10443 10441 10438 10436 10435 10435 10435 10436 10436 10437 10438 10440 10441 10442 10443 10444 10445 10447 10447 10447 10447 10447 10449 10449 10450 10451 10452 10453 10455 10456 10458 10459 10461 10462 10463 10464 10465 10466 10468 10469 10470 10471 10472 10474 10475 10479 10481 10482 10484 10486
10436 10435 10435 10434 10433 10433 10432 10431 10429 10428 10426 10424 10422 10421 10418 10416 10414 10412 10411 10411 10413 10415 10415 10416 10418 10419 10421 10423 10423 10424 10425 10426 10426 10426 10427 10428 10429 10430 10432 10432 10434 10436 10438 10440 10442 10443 10444 10446 10447 10448 10450 10451 10452 10453 10454 10455 10457 10461 10463 10465 10468 10469
10416 10415 10414 10414 10413 10411 10410 10408 10407 10405 10405 10404 10403 10401 10398 10396 10394 10392 10390 10388 10388 10390 10392 10393 10394 10396 10397 10399 10401 10402 10403 10404 10404 10404 10405 10406 10407 10409 10410 10411 10412 10414 10416 10419 10421 10423 10425 10426 10428 10429 10431 10432 10433 10434 10435 10436 10439 10443 10445 10447 10450 10451
10393 10392 10392 10392 10390 10389 10388 10386 10385 10384 10383 10382 10382 10381 10379 10377 10374 10372 10370 10368 10367 10367 10367 10368 10370 10372 10374 10375 10377 10379 10381 10382 10383 10383 10383 10384 10385 10386 10388 10389 10391 10392 10394 10397 10399 10402 10405 10406 10408 10410 10411 10412 10413 10415 10416 10418 10421 10423 10426 10430 10432 10433
10370 10368 10368 10367 10367 10366 10365 10364 10364 10363 10363 10362 10361 10360 10359 10357 10355 10353 10350 10349 10347 10346 10346 10346 10346 10347 10349 10352 10354 10356 10358 10360 10361 10361 10362 10362 10363 10363 10365 10366 10368 10370 10371 10373 10376 10379 10382 10384 10387 10389 10391 10392 10393 10394 10397 10400 10402 10404 10407 10410 10413 10415
10347 10346 10345 10344 10344 10344 10344 10344 10344 10343 10343 10342 10340 10339 10338 10336 10335 10333 10331 10330 10328 10327 10326 10326 10326 10326 10327 10328 10330 10333 10335 10337 10339 10340 10340 10340 10341 10341 10343 10344 10345 10347 10348 10350 10352 10355 10357 10361 10364 10366 10369 10370 10371 10373 10376 10379 10381 10384 10387 10390 10393 10396
10324 10324 10323 10323 10322 10322 10323 10324 10324 10324 10323 10322 10321 10319 10317 10315 10314 10313 10311 10310 10308 10307 10306 10306 10306 10307 10307 10307 10309 10310 10312 10314 10316 10318 10319 10319 10319 10320 10321 10322 10323 10325 10326 10328 10330 10331 10334 10337 10340 10343 10345 10348 10349 10351 10354 10357 10359 10363 10366 10369 10371 10374
10303 10303 10302 10303 10302 10302 10302 10302 10302 10303 10303 10302 10300 10298 10296 10295 10294 10292 10291 10290 10288 10288 10287 10287 10287 10287 10287 10288 10289 10290 10291 10292 10293 10295 10296 10297 10298 10299 10300 10301 10302 10303 10305 10307 10308 10310 10312 10314 10317 10319 10322 10325 10327 10328 10332 10335 10338 10341 10345 10348 10350 10353
10283 10283 10283 10283 10283 10282 10281 10279 10278 10279 10280 10280 10280 10278 10277 10276 10275 10274 10273 10271 10270 10269 10269 10269 10269 10269 10269 10268 10269 10270 10270 10272 10273 10274 10275 10275 10276 10277 10278 10280 10281 10282 10284 10286 10288 10289 10291 10293 10295 10297 10299 10302 10304 10306 10310 10313 10317 10320 10324 10328 10331 10333
10263 10263 10262 10262 10262 10261 10260 10259 10258 10257 10257 10259 10259 10258 10259 10258 10258 10258 10256 10254 10252 10251 10250 10251 10251 10251 10250 10249 10249 10250 10250 10250 10252 10254 10254 10255 10256 10256 10257 10258 10260 10261 10263 10265 10267 10269 10271 10273 10275 10276 10277 10280 10283 10286 10289 10292 10295 10299 10304 10309 10313 10315
10242 10242 10241 10241 10240 10240 10240 10240 10240 10239 10238 10238 10238 10238 10239 10238 10238 10239 10238 10236 10235 10234 10233 10233 10234 10233 10231 10230 10229 10229 10230 10230 10231 10232 10234 10235 10237 10238 10239 10240 10240 10241 10243 10245 10247 10249 10250 10253 10254 10255 10257 10259 10262 10266 10269 10272 10276 10278 10283 10289 10293 10297
10220 10220 10220 10220 10219 10219 10220 10220 10221 10222 10221 10220 10219 10220 10219 10219 10218 10218 10217 10217 10217 10217 10218 10217 10217 10216 10213 10210 10208 10208 10209 10210 10210 10211 10213 10215 10217 10218 10221 10223 10222 10223 10224 10225 10228 10231 10232 10233 10233 10234 10236 10239 10242 10245 10249 10254 10259 10261 10264 10268 10272 10276
10200 10200 10200 10200 10198 10198 10198 10199 10200 10202 10202 10202 10202 10202 10201 10200 10200 10198 10197 10198 10199 10199 10200 10200 10199 10197 10195 10192 10190 10189 10190 10190 10190 10192 10193 10195 10197 10198 10201 10204 10205 10206 10207 10208 10210 10213 10216 10217 10215 10213 10214 10217 10221 10225 10229 10235 10240 10244 10248 10251 10254 10256
10182 10182 10182 10181 10179 10178 10177 10178 10180 10181 10183 10183 10183 10184 10183 10182 10182 10182 10180 10181 10182 10182 10181 10181 10180 10180 10178 10176 10173 10173 10174 10173 10172 10173 10174 10176 10178 10180 10181 10184 10186 10188 10190 10191 10192 10195 10199 10202 10200 10197 10196 10197 10200 10204 10209 10215 10221 10226 10230 10235 10238 10239
10166 10166 10165 10162 10160 10158 10157 10159 10161 10163 10164 10165 10164 10164 10165 10163 10163 10164 10163 10163 10164 10163 10162 10161 10161 10162 10162 10160 10157 10158 10158 10156 10155 10156 10156 10157 10160 10163 10164 10165 10167 10169 10171 10173 10174 10176 10182 10185 10184 10181 10181 10181 10181 10183 10188 10195 10202 10207 10212 10217 10220 10222
10153 10151 10148 10146 10142 10139 10139 10141 10144 10145 10146 10146 10145 10144 10145 10145 10145 10146 10145 10145 10146 10145 10144 10142 10142 10143 10144 10143 10140 10141 10141 10140 10139 10140 10138 10139 10143 10146 10147 10147 10150 10152 10154 10155 10156 10157 10161 10167 10168 10164 10164 10165 10165 10166 10169 10175 10182 10188 10194 10199 10202 10203
10139 10136 10132 10129 10125 10121 10121 10124 10127 10127 10128 10128 10127 10125 10125 10125 10126 10127 10128 10128 10128 10127 10126 10125 10124 10125 10126 10124 10122 10122 10122 10122 10123 10123 10121 10121 10125 10129 10129 10129 10131 10135 10136 10137 10139 10139 10141 10147 10151 10148 10145 10147 10148 10148 10152 10157 10162 10169 10176 10181 10183 10184
10123 10121 10117 10113 10109 10107 10106 10108 10111 10111 10111 10110 10108 10106 10106 10106 10107 10108 10109 10110 10111 10110 10109 10107 10105 10105 10106 10105 10103 10102 10103 10104 10105 10105 10103 10103 10106 10109 10111 10111 10112 10115 10118 10119 10120 10122 10122 10126 10132 10132 10128 10128 10128 10129 10133 10140 10144 10151 10158 10162 10163 10166
10107 10105 10102 10097 10095 10094 10094 10095 10096 10095 10094 10092 10090 10089 10089 10090 10091 10091 10092 10093 10093 10092 10090 10087 10084 10084 10084 10084 10084 10083 10084 10085 10086 10086 10084 10084 10086 10089 10092 10093 10093 10095 10099 10100 10101 10103 10105 10108 10113 10115 10112 10110 10110 10109 10112 10119 10127 10134 10141 10143 10144 10147
10091 10089 10086 10082 10081 10081 10082 10081 10081 10079 10077 10075 10074 10074 10074 10074 10075 10075 10075 10076 10075 10073 10070 10066 10064 10063 10064 10065 10065 10065 10066 10068 10067 10067 10067 10066 10068 10071 10073 10075 10076 10077 10081 10084 10082 10083 10087 10090 10093 10095 10095 10093 10093 10092 10092 10095 10105 10116 10123 10124 10126 10130
10077 10074 10072 10068 10066 10067 10068 10066 10066 10064 10062 10061 10059 10059 10060 10060 10060 10060 10060 10059 10057 10053 10050 10047 10045 10045 10046 10047 10048 10048 10051 10052 10050 10048 10050 10050 10051 10054 10056 10058 10059 10060 10063 10068 10067 10067 10070 10071 10073 10075 10077 10076 10075 10075 10075 10076 10083 10094 10101 10105 10110 10115
10064 10062 10058 10053 10051 10052 10052 10052 10051 10050 10047 10046 10045 10045 10046 10046 10046 10045 10043 10040 10037 10035 10032 10030 10030 10030 10029 10031 10032 10032 10034 10036 10033 10031 10032 10033 10034 10036 10038 10040 10041 10041 10045 10051 10053 10053 10054 10054 10054 10056 10059 10059 10057 10056 10057 10059 10064 10071 10076 10083 10094 10101
10052 10050 10044 10039 10037 10037 10037 10036 10037 10036 10033 10031 10031 10032 10033 10033 10031 10028 10025 10022 10020 10019 10017 10015 10015 10014 10013 10013 10014 10015 10017 10018 10016 10015 10015 10015 10016 10018 10021 10022 10022 10022 10026 10031 10035 10038 10039 10038 10037 10037 10040 10042 10041 10038 10038 10042 10047 10052 10054 10059 10072 10083
10039 10036 10031 10025 10022 10022 10023 10022 10021 10021 10019 10016 10016 10018 10018 10016 10013 10010 10008 10006 10004 10003 10002 10001 10001 9998 9997 9996 9996 9996 9999 9999 9998 9997 9997 9996 9996 9999 10002 10004 10004 10004 10007 10011 10015 10020 10022 10021 10020 10020 10022 10024 10024 10023 10022 10024 10028 10034 10037 10039 10048 10060
10024 10022 10019 10014 10009 10008 10009 10007 10005 10005 10004 10004 10003 10003 10002 10000 9998 9996 9993 9990 9988 9987 9985 9986 9986 9984 9981 9979 9978 9977 9978 9978 9978 9979 9978 9977 9978 9980 9983 9986 9987 9987 9989 9993 9996 9999 10002 10003 10003 10005 10007 10007 10006 10007 10007 10007 10008 10014 10019 10023 10031 10040
10010 10007 10005 10002 9998 9996 9994 9992 9989 9988 9990 9991 9990 9987 9986 9985 9983 9982 9979 9975 9973 9972 9970 9970 9971 9968 9965 9962 9961 9960 9960 9959 9960 9962 9962 9961 9961 9963 9966 9968 9970 9972 9973 9976 9978 9980 9984 9987 9988 9990 9991 9990 9988 9989 9991 9989 9989 9994 10000 10007 10016 10024
9996 9993 9990 9988 9986 9983 9980 9977 9975 9974 9976 9977 9974 9972 9971 9969 9966 9965 9964 9961 9958 9957 9956 9955 9954 9952 9950 9947 9946 9945 9945 9943 9943 9945 9946 9946 9945 9948 9950 9951 9953 9956 9957 9960 9963 9965 9968 9972 9975 9975 9974 9971 9970 9972 9974 9972 9972 9976 9981 9988 9998 10007
9982 9980 9978 9976 9974 9971 9968 9965 9962 9960 9961 9961 9959 9957 9955 9953 9951 9949 9948 9946 9944 9943 9942 9941 9939 9937 9936 9934 9932 9931 9930 9929 9928 9929 9930 9930 9929 9932 9935 9936 9937 9938 9940 9944 9948 9950 9953 9958 9959 9957 9955 9954 9955 9957 9958 9958 9958 9960 9962 9968 9977 9986
9969 9967 9965 9963 9961 9959 9957 9954 9950 9948 9948 9947 9945 9942 9940 9939 9938 9936 9933 9931 9929 9928 9928 9927 9925 9923 9922 9921 9919 9918 9916 9914 9913 9914 9916 9915 9915 9917 9920 9922 9922 9922 9923 9928 9933 9934 9937 9941 9940 9937 9938 9941 9942 9942 9942 9943 9943 9944 9946 9949 9955 9963
9955 9953 9951 9950 9949 9947 9945 9941 9938 9938 9936 9933 9930 9929 9927 9926 9926 9923 9919 9917 9916 9915 9914 9913 9911 9910 9909 9907 9906 9904 9902 9901 9899 9900 9902 9903 9903 9903 9904 9906 9907 9908 9909 9913 9917 9918 9919 9922 9921 9919 9922 9926 9928 9928 9928 9929 9929 9930 9931 9933 9935 9942
9940 9939 9938 9937 9936 9934 9930 9928 9927 9927 9924 9920 9917 9916 9913 9912 9912 9910 9907 9905 9904 9903 9900 9899 9899 9898 9897 9895 9892 9890 9889 9889 9887 9886 9886 9888 9890 9891 9890 9889 9891 9893 9895 9899 9902 9902 9903 9903 9903 9904 9907 9911 9913 9914 9915 9915 9915 9916 9918 9918 9918 9925
9928 9926 9925 9923 9921 9919 9917 9916 9916 9914 9911 9908 9905 9903 9901 9899 9898 9896 9894 9893 9893 9890 9888 9886 9886 9886 9884 9882 9879 9877 9876 9877 9876 9875 9873 9872 9873 9875 9876 9875 9876 9878 9881 9884 9886 9888 9887 9886 9887 9890 9894 9897 9899 9900 9901 9901 9901 9902 9905 9905 9905 9913
9917 9915 9913 9910 9908 9906 9905 9905 9904 9901 9899 9896 9893 9892 9890 9888 9885 9883 9881 9881 9880 9878 9876 9874 9874 9873 9872 9870 9868 9866 9865 9864 9864 9863 9862 9860 9859 9860 9861 9863 9865 9866 9868 9870 9871 9873 9873 9872 9873 9877 9881 9883 9885 9885 9886 9887 9888 9890 9893 9893 9896 9904
9906 9904 9900 9897 9896 9895 9894 9893 9891 9889 9887 9884 9882 9881 9880 9877 9874 9871 9869 9868 9866 9866 9865 9863 9862 9862 9860 9858 9856 9855 9853 9852 9851 9851 9850 9849 9848 9847 9847 9849 9852 9855 9857 9857 9857 9858 9858 9859 9861 9865 9867 9869 9871 9871 9871 9874 9877 9880 9881 9882 9886 9894
9895 9892 9889 9886 9885 9885 9883 9881 9879 9877 9875 9872 9871 9870 9869 9867 9864 9861 9859 9856 9854 9853 9852 9851 9851 9851 9849 9847 9845 9843 9841 9840 9839 9839 9838 9838 9838 9837 9836 9835 9838 9842 9845 9846 9845 9844 9844 9846 9848 9851 9853 9855 9856 9857 9858 9862 9866 9867 9867 9869 9874 9879